Meteo Giornale » Osservazioni meteo Italia » Palermo-Punta Raisi

ore: 11:50 - Osservazioni Meteo Palermo-Punta Raisi
Lat. 38° 11' N Lon. 13° 6' E Alt. 21 metri s.l.m.

poco_nuvoloso Europe/Rome

25 °C

Poco Nuvoloso

Temp. 24 Ore

21 °C

25 °C

Nord/Nord-Est

20.3 Km/h

Dew point 21 °C

Umidità 78 %

Visibilità  10 Km

Il sole sorge alle ore 05:42

Il sole tramonta alle ore 20:35

Data e Ora Cielo e Fenomeni T °C DP °C Um. % Pres. hPa Vis. km Vento km/h
Oggi h: 11:50 poco_nuvoloso Poco Nuvoloso 25 21 78 1015 10 N/NE 20.3
Oggi h: 11:20 poco_nuvoloso Poco Nuvoloso 25 21 78 1015 10 N/NE 20.3
Oggi h: 10:50 poco_nuvoloso Poco Nuvoloso 24 20 78 1015 10 N/NE 18.5
Oggi h: 10:20 poco_nuvoloso Poco Nuvoloso 24 20 78 1015 10 N/NE 20.3
Oggi h: 09:50 poco_nuvoloso Poco Nuvoloso 24 20 78 1014 10 N/NE 18.5
Oggi h: 09:20 poco_nuvoloso Poco Nuvoloso 24 19 73 1014 10 N/NE 18.5
Oggi h: 08:50 poco_nuvoloso Poco Nuvoloso 24 19 73 1014 10 N/NE 16.7
Oggi h: 08:20 sereno Sereno 23 19 78 1014 10 N/NE 14.8
Oggi h: 07:50 sereno Sereno 23 19 78 1014 10 NE 11.1
Oggi h: 07:20 poco_nuvoloso Poco Nuvoloso 23 19 78 1014 10 E/NE 9.3
Oggi h: 06:50 sereno Sereno 22 19 83 1014 10 NE 9.3
Oggi h: 06:20 poco_nuvoloso Poco Nuvoloso 22 19 83 1013 10 NE 9.3
Oggi h: 05:50 poco_nuvoloso Poco Nuvoloso 21 19 88 1013 10 E/NE 9.3
Oggi h: 05:20 poco_nuvoloso Poco Nuvoloso 21 18 82 1013 10 E 11.1
Oggi h: 04:50 sereno Sereno 21 18 82 1013 10 E 9.3
Oggi h: 04:20 sereno Sereno 22 19 83 1013 10 E/NE 9.3
Oggi h: 03:50 sereno Sereno 23 20 83 1013 10 N/NE 9.3
Oggi h: 03:20 poco_nuvoloso Poco Nuvoloso 23 20 83 1013 10 N 9.3
Oggi h: 02:50 sereno Sereno 23 20 83 1013 10 N/NO 7.4
Oggi h: 02:20 sereno Sereno 23 20 83 1013 10 NO 9.3
Oggi h: 01:50 sereno Sereno 23 20 83 1013 10 O 7.4
Oggi h: 01:20 poco_nuvoloso Poco Nuvoloso 23 20 83 1013 10 O 7.4
Oggi h: 00:50 poco_nuvoloso Poco Nuvoloso 23 20 83 1014 10 N 5.5
Oggi h: 00:20 poco_nuvoloso Poco Nuvoloso 23 20 83 1014 10 N/NO 7.4
Ieri h: 23:50 poco_nuvoloso Poco Nuvoloso 23 20 83 1014 10 NO 7.4
Ieri h: 23:20 poco_nuvoloso Poco Nuvoloso 23 20 83 1014 10 N/NO 7.4
Ieri h: 22:50 poco_nuvoloso Poco Nuvoloso 23 20 83 1014 10 N/NO 11.1
Ieri h: 22:20 poco_nuvoloso Poco Nuvoloso 23 20 83 1014 10 N/NO 11.1
Ieri h: 21:50 nuvoloso Nuvoloso 23 20 83 1014 10 NO 9.3
Ieri h: 21:20 nuvoloso Nuvoloso 23 19 78 1013 10 O 7.4
Ieri h: 20:50 nuvoloso Nuvoloso 23 19 78 1013 10 N 3.7
Ieri h: 20:20 nuvoloso Nuvoloso 23 19 78 1013 10 O/NO 7.4
Ieri h: 19:50 nuvoloso Nuvoloso 23 20 83 1013 10 NO 11.1
Ieri h: 19:20 poco_nuvoloso Poco Nuvoloso 24 19 73 1013 10 N 5.5
Ieri h: 18:50 poco_nuvoloso Poco Nuvoloso 24 19 73 1013 10 N 5.5
Ieri h: 18:20 poco_nuvoloso Poco Nuvoloso 24 19 73 1013 10 O 7.4
Ieri h: 17:50 poco_nuvoloso Poco Nuvoloso 24 20 78 1013 10 O 7.4
Ieri h: 17:20 poco_nuvoloso Poco Nuvoloso 24 20 78 1013 10 O 7.4
Ieri h: 16:50 poco_nuvoloso Poco Nuvoloso 24 20 78 1013 10 O/NO 11.1
Ieri h: 16:20 poco_nuvoloso Poco Nuvoloso 24 20 78 1013 10 O/NO 14.8
Ieri h: 14:50 poco_nuvoloso Poco Nuvoloso 24 20 78 1014 10 NO 16.7
Ieri h: 14:20 poco_nuvoloso Poco Nuvoloso 24 20 78 1014 10 NO 16.7
Ieri h: 13:50 sereno Sereno 24 20 78 1014 10 NO 14.8
Ieri h: 13:20 poco_nuvoloso Poco Nuvoloso 24 20 78 1014 10 O/NO 16.7
Ieri h: 12:50 poco_nuvoloso Poco Nuvoloso 23 19 78 1014 10 O/NO 16.7